www.pogodaiklimat.ru

Погода и климат >> Архив погоды >> Австралия >> Thargomindah Airport


ПОГОДА в Thargomindah Airport

  • Прогноз погоды в Thargomindah Airport
  • Монитор погоды в Thargomindah Airport
  • Климат города

АРХИВ ПОГОДЫ в Thargomindah Airport

Время (UTC), дата Ветер
(напр.,м/с)
 
Видим.   Явления Облачность Т
(С)
Тd
(С)
f
(%)
Тe
(С)
Тes
(С)
Комфортность P
(гПа)
Po
(гПа)
Тmin
(С)
Tmax
(С)
R
(мм)
R24
(мм)
S
(см)
08 14.10 ЮВ 5 н/о н/о +28.2 +1.7 18 +26 +26 жарко 1013.1 997.9
09 14.10 ЮВ 5 н/о н/о +26.9 +2.1 20 +25 +25 комфорт 1013.9 998.7
11 14.10 Ю 4 н/о н/о +24.5 +1.4 22 +23 +23 комфорт 1015.5 1000.3
12 14.10 Ю 3 н/о н/о +23.3 +1.6 24 +23 +23 комфорт 1015.6 1000.3
14 14.10 Ю 4 н/о н/о +21.6 +2.3 28 +21 +21 комфорт 1014.7 999.5 +30.4
15 14.10 Ю 4 н/о н/о +20.9 +2.7 30 +22 +22 комфорт 1014.3 999.1
17 14.10 Ю 4 н/о н/о +19.9 +3.2 33 +20 +20 1013.0 997.8
18 14.10 Ю 4 н/о н/о +19.1 +3.3 35 +19 +19 1012.9 997.7
20 14.10 ЮВ 3 н/о н/о +17.4 +4.0 41 +18 +18 1013.7 998.5
21 14.10 ЮВ 3 н/о н/о +19.4 +4.0 36 +20 +20 1014.6 999.4
23 14.10 В 5 н/о н/о +25.2 +4.9 27 +25 +25 комфорт 1015.7 1000.5
00 15.10 СВ 6 н/о н/о +27.2 +7.6 29 +27 +27 жарко 1015.8 1000.5
02 15.10 В 6 н/о н/о +29.8 +7.7 25 +29 +29 жарко 1014.2 999.0 +17.4
03 15.10 В 6 н/о н/о +30.1 +7.3 24 +29 +29 жарко 1013.4 998.2
05 15.10 В 5 н/о н/о +31.2 +7.6 23 +30 +30 жарко 1011.8 996.7
06 15.10 В 7 н/о н/о +31.5 +7.2 22 +30 +30 жарко 1011.6 996.4
08 15.10 В 7 н/о н/о +30.1 +7.9 25 +29 +29 жарко 1012.1 996.9
09 15.10 В 6 н/о н/о +29.1 +7.6 26 +28 +28 жарко 1012.8 997.6
11 15.10 В 8 н/о н/о +25.8 +11.2 40 +27 +27 жарко 1015.1 999.9
12 15.10 В 7 н/о н/о +25.2 +9.5 37 +26 +26 жарко 1015.7 1000.4
14 15.10 В 6 н/о н/о +23.2 +10.6 45 +25 +25 комфорт 1016.2 1001.0 +32.8
15 15.10 В 6 н/о н/о +22.7 +11.4 49 +25 +25 комфорт 1016.1 1000.8
17 15.10 В 5 н/о н/о +21.2 +11.2 53 +23 +23 комфорт 1015.4 1000.2
18 15.10 В 5 н/о н/о +20.7 +11.6 56 +23 +23 комфорт 1015.7 1000.4
20 15.10 В 5 н/о н/о +19.7 +12.0 61 +21 +21 комфорт 1017.0 1001.8
21 15.10 В 7 н/о н/о +20.7 +12.1 58 +23 +23 комфорт 1018.1 1002.8
23 15.10 В 9 н/о н/о +23.5 +11.5 47 +25 +25 комфорт 1018.7 1003.4
00 16.10 В 10 н/о н/о +25.1 +10.2 39 +26 +26 жарко 1018.3 1003.0
02 16.10 В 9 н/о н/о +27.4 +9.3 32 +28 +28 жарко 1016.4 1001.2 +19.7
03 16.10 В 9 н/о н/о +27.9 +8.7 30 +28 +28 жарко 1015.5 1000.2
05 16.10 В 9 н/о н/о +28.0 +7.8 28 +28 +28 жарко 1014.2 999.0
06 16.10 В 9 н/о н/о +28.9 +8.0 27 +28 +28 жарко 1013.8 998.6
08 16.10 В 9 н/о н/о +26.4 +8.8 33 +27 +27 жарко 1014.6 999.4
09 16.10 В 8 н/о н/о +25.4 +9.7 37 +26 +26 жарко 1015.2 1000.0
11 16.10 В 7 н/о н/о +23.0 +10.1 44 +25 +25 комфорт 1016.9 1001.7
12 16.10 В 7 н/о н/о +22.2 +12.2 53 +25 +25 комфорт 1017.5 1002.2
14 16.10 В 6 н/о н/о +21.5 +12.9 58 +24 +24 комфорт 1017.3 1002.1 +29.5
15 16.10 В 5 н/о н/о +21.1 +13.3 61 +23 +23 комфорт 1016.6 1001.3
17 16.10 В 5 н/о н/о +20.3 +13.3 64 +22 +22 комфорт 1015.9 1000.7
18 16.10 В 4 н/о н/о +19.9 +13.4 66 +22 +22 комфорт 1016.1 1000.8
20 16.10 В 5 н/о н/о +19.9 +13.1 65 +22 +22 комфорт 1016.6 1001.4
21 16.10 В 7 н/о н/о +20.3 +12.8 62 +22 +22 комфорт 1017.4 1002.1
23 16.10 В 9 н/о н/о +23.5 +12.8 51 +26 +26 жарко 1017.8 1002.6
00 17.10 В 8 н/о н/о +25.2 +12.8 46 +27 +27 жарко 1017.7 1002.4
02 17.10 В 9 н/о н/о +27.4 +12.2 39 +29 +29 жарко 1015.9 1000.7 +19.7
03 17.10 СВ 8 н/о н/о +27.7 +12.1 38 +29 +29 жарко 1015.2 1000.0
05 17.10 В 7 н/о н/о +28.4 +11.0 34 +29 +29 жарко 1013.8 998.6
06 17.10 В 8 н/о н/о +27.5 +11.1 36 +28 +28 жарко 1013.8 998.6
08 17.10 В 8 н/о н/о +26.8 +12.4 41 +28 +28 жарко 1014.8 999.6
09 17.10 В 7 н/о н/о +25.6 +12.8 45 +27 +27 жарко 1015.8 1000.5
11 17.10 В 7 н/о н/о +23.6 +13.2 52 +26 +26 жарко 1017.5 1002.3
12 17.10 В 7 н/о н/о +23.5 +13.7 54 +26 +26 жарко 1017.7 1002.4
14 17.10 В 8 н/о н/о +22.2 +13.8 59 +25 +25 комфорт 1017.3 1002.1 +29.9
15 17.10 В 8 н/о н/о +21.5 +14.4 64 +24 +24 комфорт 1016.9 1001.6
17 17.10 В 7 н/о н/о +20.9 +14.8 68 +24 +24 комфорт 1015.8 1000.6
18 17.10 В 7 н/о н/о +20.7 +15.0 70 +23 +23 комфорт 1015.9 1000.6
20 17.10 В 7 н/о н/о +20.6 +15.2 71 +23 +23 комфорт 1016.6 1001.4
21 17.10 В 7 н/о н/о +20.6 +15.8 74 +23 +23 комфорт 1017.2 1001.9
23 17.10 В 8 н/о н/о +23.3 +15.1 60 +27 +27 душно 1017.6 1002.4
00 18.10 В 8 н/о н/о +24.8 +15.4 56 +28 +28 жарко 1017.6 1002.3
02 18.10 В 7 н/о н/о +27.2 +15.2 48 +30 +30 душно 1016.5 1001.3 +20.3
03 18.10 СВ 7 н/о н/о +28.1 +15.1 45 +31 +31 душно 1015.8 1000.5
05 18.10 СВ 6 н/о н/о +29.5 +14.9 41 +32 +32 душно 1014.1 998.9
06 18.10 В 5 н/о н/о +30.0 +14.9 40 +32 +32 жарко 1013.7 998.5
08 18.10 В 6 н/о н/о +30.0 +14.5 39 +32 +32 жарко 1013.9 998.7
09 18.10 В 6 н/о н/о +28.7 +14.9 43 +31 +31 жарко 1014.8 999.6
11 18.10 В 7 н/о н/о +27.4 +15.7 49 +30 +30 жарко 1016.5 1001.3
12 18.10 В 6 н/о н/о +27.3 +15.6 49 +30 +30 душно 1017.5 1002.2
14 18.10 СВ 8 н/о н/о +26.4 +16.6 55 +30 +30 душно 1017.5 1002.3 +31.2
15 18.10 СВ 6 н/о н/о +25.8 +16.9 58 +30 +30 душно 1017.2 1001.9
17 18.10 СВ 7 н/о н/о +25.0 +17.0 61 +29 +29 душно 1016.4 1001.2
18 18.10 СВ 6 н/о н/о +24.6 +16.8 62 +28 +28 душно 1016.5 1001.2
20 18.10 СВ 6 н/о н/о +24.4 +17.1 64 +28 +28 душно 1017.6 1002.4
21 18.10 СВ 6 н/о н/о +24.5 +17.0 63 +28 +28 душно 1018.4 1003.1
23 18.10 СВ 7 н/о н/о +27.1 +17.3 55 +31 +31 душно 1019.2 1003.9
00 19.10 С 6 н/о н/о +28.3 +16.2 48 +32 +32 душно 1018.8 1003.5
02 19.10 С 6 н/о н/о +31.8 +15.7 38 +34 +34 душно 1017.5 1002.3 +24.4
03 19.10 С 5 н/о н/о +31.8 +14.4 35 +34 +34 душно 1017.0 1001.7
05 19.10 С 5 н/о н/о +32.9 +14.0 32 +34 +34 очень
жарко
1015.4 1000.2
06 19.10 С 5 н/о н/о +32.5 +14.1 33 +34 +34 очень
жарко
1015.0 999.8
08 19.10 С 3 н/о н/о +32.1 +13.3 32 +33 +33 жарко 1015.3 1000.1
09 19.10 Ю 8 н/о н/о +28.0 +18.4 56 +33 +33 очень
душно
1016.4 1001.1
11 19.10 Ю 6 н/о н/о +26.2 +19.6 67 +32 +32 очень
душно
1017.8 1002.6
12 19.10 Ю 5 н/о н/о +25.5 +19.6 70 +31 +31 очень
душно
1018.6 1003.3
14 19.10 Ю 6 н/о н/о +24.0 +20.1 79 +30 +30 очень
душно
1018.2 1003.0 +34.0
15 19.10 ЮВ 5 н/о н/о +22.8 +20.9 89 +30 +30 очень
душно
1017.8 1002.5
17 19.10 Ю 9 н/о {туман} н/о +21.1 +18.5 85 +25 +25 комфорт 1017.8 1002.6
18 19.10 Ю 6 н/о н/о +21.2 +17.8 81 +25 +25 комфорт 1017.4 1002.1
20 19.10 С 1 н/о {туман} н/о +20.9 +18.1 84 +26 +26 душно 1019.5 1004.2
21 19.10 ЮЗ 2 н/о н/о +20.4 +18.3 88 +25 +25 комфорт 1019.7 1004.4
23 19.10 Ю 3 н/о {туман} н/о +20.7 +18.6 88 +25 +25 комфорт 1021.1 1005.8
00 20.10 В 2 н/о н/о +21.1 +18.7 86 +25 +25 комфорт 1021.5 1006.2
02 20.10 ЮВ 4 н/о {туман} н/о +22.7 +18.3 76 +28 +28 душно 1020.2 1004.9 +20.3
03 20.10 ЮВ 3 н/о н/о +23.5 +18.2 72 +28 +28 душно 1019.8 1004.5
05 20.10 Ю 7 н/о {туман} н/о +22.5 +17.2 72 +27 +27 душно 1018.8 1003.5
06 20.10 Ю 5 н/о н/о +23.0 +17.5 71 +28 +28 душно 1018.4 1003.1
08 20.10 Ю 5 н/о {туман} н/о +22.8 +16.6 68 +27 +27 душно 1019.2 1003.9
09 20.10 Ю 6 н/о н/о +22.4 +16.0 67 +27 +27 душно 1019.2 1003.9
11 20.10 Ю 5 н/о {туман} н/о +21.1 +14.5 66 +24 +24 комфорт 1020.2 1004.9
12 20.10 Ю 4 н/о н/о +20.2 +14.3 69 +23 +23 комфорт 1020.4 1005.1
14 20.10 Ю 6 н/о н/о +19.2 +10.7 58 +20 +20 1020.4 1005.1 +25.6
15 20.10 Ю 5 н/о н/о +18.4 +8.1 51 +18 +18 1019.6 1004.3
17 20.10 Ю 4 н/о н/о +15.4 +9.5 68 +15 +15 1019.1 1003.8
18 20.10 Ю 3 н/о н/о +14.6 +9.8 73 +14 +14 1019.3 1004.0
20 20.10 Ю 3 н/о н/о +13.5 +8.6 72 +13 +13 1019.9 1004.6
23 20.10 ЮВ 7 н/о н/о +18.9 +2.7 34 +19 +19 1021.1 1005.8
00 21.10 Ю 6 н/о н/о +19.7 +3.4 34 +20 +20 1021.1 1005.8
02 21.10 Ю 6 н/о н/о +22.1 +3.3 29 +22 +22 комфорт 1018.9 1003.6 +13.5
03 21.10 Ю 7 н/о н/о +23.5 +3.4 27 +23 +23 комфорт 1018.1 1002.8
05 21.10 Ю 5 н/о н/о +24.6 +0.8 21 +23 +23 комфорт 1016.4 1001.2
06 21.10 Ю 6 н/о н/о +24.8 +1.0 21 +24 +24 комфорт 1016.0 1000.7

 

Местоположение метеостанции Thargomindah Airport (Квинсленд, Австралия): широта -27.98 долгота 143.81 высота над уровнем моря 132 м.

В архиве по умолчанию представлена погода в Thargomindah Airport за последнюю неделю. Архивные данные за месяц целиком и за предыдущие месяцы, начиная с января 2011 года, Вы можете получить, выбрав интересующий диапазон дат из раскрывающегося списка и нажав кнопку "Ввод!".

Внимание! Время в таблицах - всемирное. Для получения местного времени необходимо прибавить поправку, которая в Thargomindah Airport равна 10 ч.

Смотрите также архив погоды в соседних городах и на ближайших метеорологических станциях:

Погода в Ballera Gas Field (Квинсленд, Австралия) (206 км)
Погода в Tibooburra Airport (Новый Южный Уэльс, Австралия) (237 км)
Погода в Charleville Aero (Квинсленд, Австралия) (299 км)
Погода в Bourke Airport Aws (Новый Южный Уэльс, Австралия) (309 км)
Погода в White Cliffs Aws (Новый Южный Уэльс, Австралия) (327 км)
Погода в Moomba Airport (Южная Австралия, Австралия) (355 км)
Погода в Wilcannia Aerodrome (Новый Южный Уэльс, Австралия) (396 км)
Погода в Fowlers Gap Aws (Новый Южный Уэльс, Австралия) (401 км)
Погода в Blackall Airport (Квинсленд, Австралия) (428 км)
Погода в Cobar Mo (Новый Южный Уэльс, Австралия) (435 км)

Пояснения к столбцам:

Ветер - указаны скорость ветра в м/с - средняя за 10 мин, порывы в срок и между сроками (в фигурных скобках) и направление, откуда дует ветер: С - северный, СВ - северо-восточный, В - восточный, ЮВ - юго-восточный, Ю - южный, ЮЗ - юго-западный, З - западный, СЗ - северо-западный.
Видимость - горизонтальная дальность видимости в метрах или километрах. При видимости от 1 до 10 км при отсутствии осадков обычно наблюдается дымка, при ухудшении видимости до 1 км и менее - туман. В сухую погоду видимость может ухудшаться дымом, пылью или мглою.
Явления - указаны атмосферные явления, наблюдавшиеся в срок или в последний час перед сроком; фигурными скобками обозначены явления, наблюдавшиеся между сроками (за 1-3 часа до срока); квадратными скобками обозначены град или гололедные отложения с указанием их диаметра в мм.
Облачность - указаны через наклонную черту общая и нижняя облачность в баллах и высота нижней границы облаков в метрах; квадратными скобками обозначены формы облаков: Ci - перистые, Cs - перисто-слоистые, Cc - перисто-кучевые, Ac - высококучевые, As - высокослоистые, Sc - слоисто-кучевые, Ns - слоисто-дождевые, Cu - кучевые, Cb - кучево-дождевые. Подробнее классификацию облаков см. в Атласе облаков (PDF).
T - Температура воздуха - температура, измеренная на высоте 2 м над землей.
Td - Температура точки росы - температура, при понижении до которой содержащийся в воздухе водяной пар достигнет насыщения.
f - Относительная влажность воздуха - влажноcть воздуха, измеренная на высоте 2 м над землей.
Te - Эффективная температура - температура, которую ощущает одетый по сезону человек в тени. Характеристика душности погоды. При расчете учитывается влияние влажности воздуха и скорости ветра на теплоощущения человека.
Tes - Эффективная температура на солнце - температура, которую ощущает человек, с поправкой на солнечный нагрев. Характеристика знойности погоды. Зависит от высоты солнца над горизонтом, облачности и скорости ветра. Ночью, в пасмурную погоду, а также при ветре 12 м/с и более поправка равна нулю.
P - Атмосферное давление - приведенное к уровню моря атмосферное давление.
Po - Атмосферное давление - измеренное на уровне метеостанции атмосферное давление.
Tmin - Минимальная температура - минимум температуры воздуха на высоте 2 м над землей.
Tmax - Максимальная температура - максимум температуры воздуха на высоте 2 м над землей.
R - Количество осадков - Количество выпавших осадков за период времени, мм. При наведении курсора мыши на число - период времени, за который выпало указанное количество осадков.
R24 - Количество осадков - Количество выпавших осадков за 24 часа, мм.
S - Снежный покров - Высота снежного покрова, см. При наведении курсора мыши на число - состояние снежного покрова и степень покрытия местности в баллах.